Informationen zur Loipe auf der Atzenberger Höhe
 
19.01.2019Höhe
ü. NN
ZeitTemperatur (°C)Nieder-
schlag
Luft-
feuchte
Luft-
druck
Wind
StationaktuellMinimumMaximumaktuellMaximum
Aldingen654 m22:11-5,8-10,0 (05:59)-2,0 (14:43)0,0 l/m²92%1016,45,6 km/h (2 Bft) SO14,8 km/h (3 Bft) S-SO (13:07)
Allmannsweiler625 m22:10-9,3-9,3 (22:05)-2,8 (15:25)0,0 l/m²93%1015,51,6 km/h (1 Bft) SO12,9 km/h (3 Bft) SW (13:50)
Allmendingen541 m22:10-8,7-10,2 (07:25)-3,4 (00:35)0,0 l/m²90%1015,80,0 km/h (0 Bft) S-SW16,1 km/h (3 Bft) SO (09:05)
Altshausen574 m22:10-8,3-8,3 (21:57)-2,3 (14:44)0,0 l/m²88%1011,60,0 km/h (0 Bft) W-SW11,3 km/h (2 Bft) N-NO (00:05)
Amstetten-Reutti663 m22:10-7,2-8,0 (06:10)-4,1 (14:40)0,0 l/m²94%1015,50,0 km/h (0 Bft) S-SO27,4 km/h (4 Bft) O (09:45)
Amtzell-Grenis677 m22:10-8,2-8,2 (22:00)-2,1 (14:15)0,0 l/m²88%1017,04,8 km/h (1 Bft) NO16,1 km/h (3 Bft) O-SO (00:00)
Aulendorf570 m22:10-8,1-8,1 (22:06)-2,5 (15:13)0,0 l/m²86%1015,10,0 km/h (0 Bft) S-SW14,5 km/h (3 Bft) NO (00:34)
Bad Krozingen233 m22:10-3,4-5,7 (08:50)0,4 (15:35)0,0 l/m²91%1015,40,0 km/h (0 Bft) O6,6 km/h (2 Bft) W-NW (13:25)
Bad Saulgau595 m22:10-7,8-7,8 (22:05)-1,9 (15:15)0,0 l/m²90%1014,40,0 km/h (0 Bft) W-NW12,9 km/h (3 Bft) W (07:00)
Bad Saulgau-Lampertsweiler627 m22:10-7,3-7,5 (21:00)-2,8 (00:00)0,0 l/m²89%1017,90,0 km/h (0 Bft) O-SO14,5 km/h (3 Bft) S-SO (10:50)
Bad Schussenried572 m22:10-6,8-7,1 (20:40)-2,6 (15:10)0,0 l/m²91%1013,90,0 km/h (0 Bft) SW11,3 km/h (2 Bft) O-NO (00:15)
Bergatreute615 m22:10-10,6-10,6 (22:10)-2,0 (14:20)0,0 l/m²94%1015,80,0 km/h (0 Bft) N12,9 km/h (3 Bft) O-NO (00:00)
Biberach (Riss), Boehringer533 m22:00-8,1-8,2 (22:00)-2,9 (00:00)0,0 l/m²94%1013,80,0 km/h (0 Bft) W-NW16,6 km/h (3 Bft) S (13:50)
Biberach (Riss), Realschule553 m22:10-9,2-9,2 (22:05)-3,2 (00:00)0,0 l/m²92%1016,80,0 km/h (0 Bft) O-SO16,1 km/h (3 Bft) W-SW (12:55)
Bodnegg-Rotheidlen677 m22:10-7,9-8,1 (06:20)-2,7 (14:25)0,0 l/m²93%1015,80,0 km/h (0 Bft) W-NW14,5 km/h (3 Bft) O (00:00)
Burgrieden523 m22:10-7,2-7,2 (22:05)-3,2 (00:00)0,0 l/m²86%1015,60,0 km/h (0 Bft) S12,9 km/h (3 Bft) S (17:35)
Burgrieden-Hochstetten510 m22:10-7,7-7,7 (22:10)-2,8 (23:00)0,0 l/m²91%1015,74,8 km/h (1 Bft) SO14,5 km/h (3 Bft) SO (08:15)
Donauwörth411 m22:10-6,4-6,4 (22:10)-0,8 (15:05)0,0 l/m²91%1015,80,0 km/h (0 Bft) O-SO22,5 km/h (4 Bft) O (10:45)
Ebersbach579 m22:10-8,7-8,7 (21:55)-2,6 (00:00)0,0 l/m²93%1016,40,0 km/h (0 Bft) O17,7 km/h (3 Bft) O-NO (00:00)
Ebersbach-Boos605 m22:10-8,9-8,9 (22:05)-2,5 (15:15)0,0 l/m²93%1016,20,0 km/h (0 Bft) O-SO22,5 km/h (4 Bft) O (00:05)
Ebersbach-Menzenweiler661 m22:10-6,9-6,9 (21:55)-3,1 (15:05)0,0 l/m²95%1016,18,0 km/h (2 Bft) O-NO29,0 km/h (5 Bft) O-NO (00:00)
Ehingen535 m22:10-8,4-8,4 (22:10)-3,7 (00:50)0,0 l/m²87%1015,82,2 km/h (1 Bft) W-NW12,8 km/h (3 Bft) W-NW (08:50)
Erlenmoos645 m22:10-9,1-9,1 (22:10)-2,6 (15:15)0,0 l/m²85%1015,80,0 km/h (0 Bft) O-NO0,0 km/h (0 Bft) W (00:00)
Ertingen569 m22:10-7,3-7,3 (22:10)-2,8 (15:20)0,0 l/m²90%1015,40,0 km/h (0 Bft) O-SO12,9 km/h (3 Bft) N-NO (07:10)
Friedrichshafen405 m22:10-5,0-5,0 (08:15)2,1 (15:25)0,0 l/m²88%1015,76,4 km/h (2 Bft) NO12,9 km/h (3 Bft) O (23:10)
Günzburg443 m22:05-6,8-7,1 (21:20)-2,2 (15:09)0,0 l/m²89%1013,20,0 km/h (0 Bft) W14,5 km/h (3 Bft) O-SO (09:25)
Höchsten802 m22:10-6,1-7,7 (08:35)-4,1 (14:50)0,0 l/m²93%1013,60,0 km/h (0 Bft) SO38,6 km/h (5 Bft) N-NO (00:35)
Horgenzell618 m22:10-5,1-5,2 (03:50)-3,7 (00:00)0,0 l/m²90%1013,68,0 km/h (2 Bft) O-NO19,3 km/h (3 Bft) NO (00:25)
Hoßkirch632 m22:10-8,7-8,7 (22:10)-2,7 (14:25)0,0 l/m²92%1014,90,0 km/h (0 Bft) SW20,9 km/h (4 Bft) O-NO (00:35)
Isny, Am Dreifingerbach695 m22:10-9,8-11,4 (06:00)-2,3 (15:05)0,0 l/m²90%1015,66,4 km/h (2 Bft) O-SO8,0 km/h (2 Bft) O (05:25)
Isny, Weidachweg706 m22:10-10,6-11,7 (08:20)-1,3 (14:10)0,0 l/m²88%1017,34,8 km/h (1 Bft) SO11,3 km/h (2 Bft) SW (02:20)
Kappel-Grafenhausen163 m22:05-3,2-4,9 (08:20)2,4 (14:45)0,0 l/m²90%1013,00,0 km/h (0 Bft) N6,4 km/h (2 Bft) N-NO (10:25)
Kirchberg an der Iller584 m22:10-8,2-8,2 (21:55)-3,2 (23:00)0,0 l/m²88%1005,40,0 km/h (0 Bft) SO8,0 km/h (2 Bft) S-SW (01:55)
Kißlegg-Staibshof709 m22:10-7,1-7,2 (08:10)-1,4 (15:20)0,0 l/m²96%1015,50,0 km/h (0 Bft) N-NO11,3 km/h (2 Bft) O-NO (00:00)
Kressbronn398 m22:12-4,8-5,1 (07:56)-0,4 (14:52)0,0 l/m²84%1014,50,0 km/h (0 Bft) NO12,9 km/h (3 Bft) NO (01:08)
Kreuzthal-Steinberg-Alpe930 m21:50-5,7-10,0 (08:00)2,6 (12:50)0,0 l/m²100%1015,00,0 km/h (0 Bft) O13,7 km/h (3 Bft) W-NW (00:00)
Kreuzthal-Steinberggipfel1040 m22:00-3,5-8,9 (07:50)0,1 (14:10)-84%1015,011,5 km/h (2 Bft) SW22,7 km/h (4 Bft) O-SO (00:40)
Kristberg im Montafon (AT)1425 m22:10-8,1-9,5 (05:20)3,1 (12:15)0,0 l/m²72%1015,34,8 km/h (1 Bft) N12,9 km/h (3 Bft) N (09:00)
Laupheim500 m22:10-7,2-7,2 (22:10)-3,2 (00:00)0,0 l/m²90%1015,03,2 km/h (1 Bft) SW14,5 km/h (3 Bft) S-SW (12:20)
Lindau-Insel420 m22:10-4,8-6,2 (08:30)1,4 (14:45)0,0 l/m²84%1014,88,0 km/h (2 Bft) N11,3 km/h (2 Bft) W (13:55)
Lindau-Stadt412 m22:10-5,4-6,8 (07:45)-0,4 (11:50)0,0 l/m²85%1015,16,4 km/h (2 Bft) NO9,7 km/h (2 Bft) N (01:10)
Maierhöfen im Allgäu733 m22:15-14,1-15,2 (08:10)1,6 (13:30)0,0 l/m²89%1017,00,0 km/h (0 Bft) SW4,8 km/h (1 Bft) O (01:45)
Maselheim-Sulmingen548 m22:10-8,8-8,8 (21:10)-3,7 (23:00)0,0 l/m²92%1017,24,8 km/h (1 Bft) O-SO12,9 km/h (3 Bft) O (23:05)
Mietingen-Baltringen528 m22:10-8,2-8,2 (22:10)-3,3 (00:00)0,0 l/m²87%1017,64,8 km/h (1 Bft) W12,9 km/h (3 Bft) SO (08:20)
Mindelheim-Apfeltrach620 m22:11-13,2-13,2 (22:00)-2,3 (14:59)0,2 l/m²88%1017,04,8 km/h (1 Bft) S6,4 km/h (2 Bft) NO (06:59)
Neresheim552 m22:00-6,1-6,1 (22:00)-3,8 (15:33)0,0 l/m²92%1012,20,0 km/h (0 Bft) S15,1 km/h (3 Bft) O-SO (09:22)
Neukirch570 m22:10-7,2-7,4 (07:10)-0,8 (13:00)0,0 l/m²92%1016,04,8 km/h (1 Bft) NO9,7 km/h (2 Bft) NO (23:30)
Ochsenhausen, Birkenstraße613 m22:10-10,7-10,7 (22:05)-3,5 (14:15)0,0 l/m²84%1016,36,4 km/h (2 Bft) O11,3 km/h (2 Bft) O-NO (08:05)
Ochsenhausen, Unt. Wiesen575 m22:10-10,6-10,6 (22:00)-3,7 (00:00)0,0 l/m²90%1017,38,0 km/h (2 Bft) S-SW14,5 km/h (3 Bft) S-SO (08:05)
Ostrach619 m22:10-8,7-8,7 (22:00)-1,3 (14:40)0,0 l/m²92%1014,20,0 km/h (0 Bft) S-SO17,7 km/h (3 Bft) N-NO (23:00)
Ravensburg428 m22:10-5,9-5,9 (22:05)-0,4 (15:10)0,0 l/m²90%1015,08,0 km/h (2 Bft) N16,1 km/h (3 Bft) N-NO (01:45)
Ravensburg-Wernsreute511 m22:10-6,9-7,0 (21:20)-1,7 (15:25)0,0 l/m²91%1017,89,7 km/h (2 Bft) N22,5 km/h (4 Bft) N-NO (23:30)
Reichenbach an der Fils343 m22:10-5,7-5,7 (22:10)-1,8 (11:20)0,0 l/m²84%1017,43,2 km/h (1 Bft) O-SO24,1 km/h (4 Bft) O (20:10)
Reinstetten559 m22:10-10,7-10,7 (22:05)-3,2 (00:00)0,0 l/m²91%1016,36,4 km/h (2 Bft) S-SW17,7 km/h (3 Bft) SO (09:35)
Riedlingen530 m22:10-7,4-7,4 (22:10)-3,2 (15:25)0,0 l/m²91%1015,60,0 km/h (0 Bft) O-NO12,9 km/h (3 Bft) O-NO (00:45)
Schemmerhofen520 m22:10-8,6-8,6 (22:10)-3,0 (00:00)0,0 l/m²91%1015,41,6 km/h (1 Bft) SW12,9 km/h (3 Bft) N-NO (04:00)
Silbertal im Montafon (AT)884 m22:10-7,8-9,2 (06:40)-4,6 (14:50)0,0 l/m²90%1017,60,0 km/h (0 Bft) SO3,2 km/h (1 Bft) S-SO (02:00)
Tettnang466 m22:10-5,1-5,9 (07:35)-0,5 (14:55)0,0 l/m²85%1014,26,4 km/h (2 Bft) O-NO14,5 km/h (3 Bft) O (01:05)
Tuttlingen662 m22:05-7,1-9,6 (05:10)-3,9 (14:35)0,0 l/m²89%1015,70,0 km/h (0 Bft) O-SO11,3 km/h (2 Bft) O-SO (14:40)
Ummendorf547 m22:10-9,6-9,9 (22:00)-3,4 (01:30)0,0 l/m²90%1016,81,6 km/h (1 Bft) S-SO16,1 km/h (3 Bft) SW (13:05)
Ummendorf-Fischbach558 m22:10-10,2-10,4 (21:45)-3,9 (01:25)0,0 l/m²90%1017,20,0 km/h (0 Bft) S-SO14,5 km/h (3 Bft) O-NO (01:35)
Waldburg707 m22:10-7,7-7,7 (22:10)-3,2 (13:05)0,0 l/m²92%1015,30,0 km/h (0 Bft) N14,5 km/h (3 Bft) N (00:15)
Waltenhofen im Allgäu720 m22:10-13,1-13,7 (07:35)-0,8 (13:35)0,2 l/m²89%1016,40,0 km/h (0 Bft) S-SW4,8 km/h (1 Bft) S-SW (11:55)
Weingarten500 m22:10-7,9-7,9 (22:05)-1,5 (14:25)0,0 l/m²88%1015,60,0 km/h (0 Bft) O-NO8,0 km/h (2 Bft) O-NO (00:55)
Winterlingen785 m21:45-6,8-10,0 (07:00)-3,9 (16:00)0,0 l/m²96%1013,74,0 km/h (1 Bft) S-SW7,2 km/h (2 Bft) S-SO (10:40)

niederschlagsdatenbank | info | login - erfassung

Sollten Sie Interesse haben, an der Niederschlagsdatenbank teilzunehmen, finden Sie > hier < weitere Informationen.
Datum: . . Kalender
Anmerkung:0,0 = nicht messbarer Niederschlag
 -  = kein Niederschlag
 k  = kumulierter Niederschlag

< 24.01.2019


Niederschlagswerte vom 25.01.2019    -    derzeit 103 Stationen

Die Niederschlagswerte des gewählten Tages lassen sich durch Klicken auf das Datum sortieren.
Die Angaben sind in l/m².

StationBemerkung 25.01.
Aichstetten-Nestbaum
Albbruck
Allmendingen
Amstetten-Reutti
Aulendorf
Aulendorf-Blönried
Aulendorf-Zollenreute
Bad Buchau
Bad Saulgau Walserweg
Bad Saulgau-Hochberg
Bad Schussenried Konradstraße
Bad Schussenried Lortzingstrasse
Bad Schussenried Klosterstraße
Bad Schussenried Theodor-Storm-Strasse
Bad Schussenried-Hopferbach
Bad Schussenried-Schwaigfurt
Bad Waldsee-Haisterkirch
Bad Wurzach-Dietmanns
Bad Wurzach-Seibranz
Baienfurt
Balzheim
Berg-Kleintobel
Biberach Amriswilstrasse
Biberach Strölinweg
Biberach Erlenweg
Biberach Neue Heimat 5
Biberach Mittelbergstraße 9
Biberach-Bergerhausen
Bierstetten
Blaubeuren-Pappelau
Bühlertal
Dettingen a. d. Iller
Dornstadt-Tomerdingen
Dürnau
Eberhardzell Lilienweg
Ebersbach-Roßwälden
Ehingen Rosenstraße
Ehingen Zanderstraße
Ehingen Schlaufenbühl
Ehingen Schillerstraße
Ehingen-Herbertshofen
Eislingen
Erbach-Bach
Erlenmoos
Füramoos
Gutenzell
Gutenzell-Hürbel
Herbertingen Drosselweg
Herbertingen Hirschstrasse
Hochdorf-Schweinhausen
Hohentengen-Bremen
Horgenzell-Ringgenweiler
Hüttisheim
Illerkirchberg
Inzigkofen
Isny
Kirchberg
Kreuzthal-Steinberg-Alpe
Langenau
Langenenslingen
Leutkirch Unterer Auenweg 25
Leutkirch Nachtigallenweg 28
Leutkirch-Adrazhofen
Mietingen Seerosenweg 10
Mietingen-Walpertshofen
Mittelbiberach-Reute
Moosburg
Münsingen-Rietheim
Neresheim
Oberdischingen
Ochsenhausen
Öpfingen
Ostrach Uhlandweg
Pfaffenhofen-Kadeltshofen
Pfullendorf Am Schweizersbild
Rangendingen
Ravensburg Bleicherstraße
Ravensburg-Schmalegg
Ravensburg-Wernsreute
Ravensburg-Weststadt
Riedhausen
Riedlingen-Neufra
Schelklingen-Gundershofen
Schemmerberg
Schwörstadt
Sigmaringendorf
Tuttlingen-Möhringen Eßlinger Straße
Ulm    neu  
Ummendorf Tulpenweg
Ummendorf Friedrich-Schiller-Str.
Uttenweiler-Ahlen
Vöhringen (Schwarzwald)
Waldburg
Wangen-Atzenberg
Wangen-Bergerhöhe
Warthausen An der Schloßhalde
Warthausen Schwabenwiesen
Warthausen-Barabein
Weingarten Laurastraße
Weingarten Hoyerstraße
Weingarten Marienstraße
Wolfegg-Veesers
Wolpertswende

Stillgelegte Niederschlagsstationen    -    derzeit 46 Stationen

StationLetzte MeldungBemerkung 25.01.
Allmannsweiler02.09.2014
Aulendorf-Rugetsweiler 25.07.2013
Bad Saulgau Willi-Burth-Straße19.09.2011
Bad Saulgau Eichendorffweg28.03.2013
Bad Saulgau Seewattenstraße 12815.01.2014
Bad Saulgau-Lampertsweiler18.02.2015
Bad Schussenried-Steinhausen26.09.2012
Bad Waldsee-Michelwinnanden31.12.2014
Bad Waldsee-Osterhofen06.03.2015
Bad Waldsee-Steinach10.11.2013
Bad Wurzach-Haidgau07.10.2012
Bad Wurzach-Ziegelbach07.11.2014
Bergatreute13.02.2012
Betzenweiler05.01.2017
Burgrieden28.10.2013
Burgrieden-Rot18.09.2013
Eberhardzell Schillerstraße05.07.2010
Ehingen Am Elzengraben17.06.2016
Gammertingen16.01.2016
Griesingen06.10.2015
Günzburg31.12.2010
Hoßkirch05.01.2018
Ingoldingen-Grodt19.11.2016
Kisslegg02.05.2011
Krauchenwies-Hausen23.11.2013
Kressbronn10.03.2010
Leutkirch-Ottmannshofen27.07.2012
Leutkirch-Rotis08.05.2016
Leutkirch-Wuchzenhofen19.09.2016
Mietingen Hangweg 1530.12.2017
Mössingen-Bästenhardt21.07.2014
Ostrach Heiligenberger Straße19.08.2013
Pfullendorf Ringstraße 18.03.2012
Ravensburg Olgastraße30.10.2016
Seltmans09.04.2013
Stuttgart-Bad Cannstatt03.02.2013
Stuttgart-Möhringen23.04.2017
Stuttgart-Rohr07.11.2012
Talheim21.08.2016
Tannheim22.10.2017
Tettnang-Ramsbach26.03.2011
Tuttlingen-Möhringen Belchenstraße01.01.2015
Ummendorf Bergstraße23.10.2017
Vogt22.05.2015
Weingarten Bischof-Sproll-Straße30.06.2011
Wilhelmsdorf Riedhauser Straße 28.10.2012
Wilhelmsdorf Seefeld20.08.2013
Wurmlingen14.10.2016
Die Niederschlagswerte des gewählten Tages lassen sich durch Klicken auf das Datum sortieren.
Die Angaben sind in l/m².

Wetterbeobachtungen Legende:

  • Regen
  • Nieselregen
  • Schneeregen
  • Schnee
  • Graupel
  • Eiskörner
  • Hagel
  • Bodennebel
  • Gewitter
  • Nebelnässe
  • Schneegriesel

< 24.01.2019Monats- und Jahresniederschlag


 
wetterstationen
wetterstationen
- derzeit 73 Stationen
niederschlagsdatenbank
wetterstationen
- kartographische Darstellung
niederschlagsdatenbank
niederschlagsstationen
- derzeit 103 Stationen
niederschlagsdatenbank
niederschlagsstationen
- kartographische Darstellung
 
 
Fr. 7.30 Uhr - Sa. 7.30 Uhr (MEZ)
1.Waldburg2,0 l/m²
2.Ulm1,5 l/m²
3.Amstetten-Reutti0,8 l/m²
4.Langenau0,5 l/m²
5.Dornstadt-Tomerdingen0,5 l/m²
6.Eberhardzell
Lilienweg
0,1 l/m²
7.Eislingen0,1 l/m²
8.Langenenslingen0,1 l/m²
9.Kreuzthal-Steinberg-Alpe0,0 l/m²
10.Ehingen
Rosenstraße
0,0 l/m²
11.Füramoos0,0 l/m²
12.Ehingen
Schillerstraße
0,0 l/m²
13.Ravensburg-Schmalegg0,0 l/m²
 
Sa. 19.01.2019 - 7.30 Uhr (MEZ)
1.Kreuzthal-Steinberg-Alpe108 cm
2.Isny54 cm
3.Leutkirch-Adrazhofen45 cm
4.Waldburg40 cm
5.Bad Wurzach-Seibranz39 cm
6.Münsingen-Rietheim34 cm
7.Schelklingen-Gundershofen24 cm
8.Eberhardzell
Lilienweg
19 cm
9.Amstetten-Reutti18 cm
10.Ochsenhausen15 cm
11.Horgenzell-Ringgenweiler9 cm
12.Tuttlingen-Möhringen
Eßlinger Straße
8 cm
13.Ravensburg-Schmalegg7 cm
14.Langenenslingen2 cm
15.Ehingen
Schillerstraße
1 cm
16.Langenauca 1cm
17.Ulmalles wieder weg
18.Moosburgstark angezuckert
19.AulendorfReste
20.WolpertswendeReste
21.Öpfingen"Reste"
22.Weingarten
Marienstraße
Reste
23.BalzheimReste
24.Riedhausenr
25.Pfaffenhofen-KadeltshofenReste
26.Bad Saulgau
Walserweg
Reste
27.Weingarten
Laurastraße
Reste
 
  treffpunkt & service
--- Anzeigen --------------------------------
zugriffe:
insgesamt: 40.646.221
aktueller monat: 319.302
heute: 12.214
momentan online: 60
 
 
monatshöchstwert: 653.625
vorheriger monat: 400.931
gestern: 9.684
tageshöchstwert: 45.129
 
wetterwarte süd
 
konradstraße 3
info@wetterwarte-sued.com
roland roth
 
88427 bad schussenried